Overview Statistics Trail Chart Weather Telemetry Raw packets
 

This is the latest recevied weather packets stored in our database for station/object IZ5RIE-13. If no packets are shown the sender has not sent any weather packets the latest 10 day(s).

<< 38 39 40 41 42 43 44 >>
Time Temp. Humidity Pressure Rain* Wind** Luminosity Snow
1787946104 27.22° C 100% 1016.9 hPa - - - -
1787945204 27.22° C 100% 1016.9 hPa - - - -
1787944304 27.22° C 100% 1017 hPa - - - -
1787943403 27.22° C 100% 1016.8 hPa - - - -
1787942503 27.22° C 100% 1016.9 hPa - - - -
1787941603 27.22° C 100% 1016.7 hPa - - - -
1787940703 27.22° C 100% 1016.3 hPa - - - -
1787939803 27.22° C 100% 1016.2 hPa - - - -
1787938903 27.78° C 100% 1015.9 hPa - - - -
1787938002 27.78° C 100% 1015.8 hPa - - - -
1787937102 27.78° C 100% 1015.8 hPa - - - -
1787936202 28.33° C 100% 1015.8 hPa - - - -
1787935302 28.89° C 100% 1015.8 hPa - - - -
1787934402 29.44° C 100% 1016 hPa - - - -
1787933502 30° C 100% 1016.1 hPa - - - -
1787932602 30.56° C 100% 1016.2 hPa - - - -
1787931701 31.11° C 100% 1016.1 hPa - - - -
1787930801 31.11° C 100% 1016.1 hPa - - - -
1787929901 30.56° C 100% 1016.1 hPa - - - -
1787929001 30.56° C 100% 1016.3 hPa - - - -
1787928101 31.11° C 100% 1016.3 hPa - - - -
1787927201 31.11° C 100% 1016.5 hPa - - - -
1787926300 31.67° C 100% 1016.3 hPa - - - -
1787925405 31.11° C 100% 1016.3 hPa - - - -
1787924505 29.44° C 100% 1016.8 hPa - - - -

* Rain since midnight (hover to see other rain measurements)
** Current wind speed in m/s (hover to see current wind gust speed)